Home > Weather > Niš > Past weeks

Flag for Serbia Past Weather in Niš, Serbia — Yesterday and Last 2 Weeks

Now
63 °F

Clear.


Feels Like: 63 °F
Forecast: 63 / 73 °F
Wind: 1 mph from North

Location: Nis Airport

Current Time: Jun 27, 2016 at 4:23:19 AM

Latest Report: Jun 27, 2016 at 4:00 AM


Visibility: 10 mi

Pressure: 29.95 "Hg

Humidity: 100%

Dew Point: 63 °F

Location of NišLocation

Past Weather in Niš — Graph

°F

Niš Temperature Yesterday

Maximum temperature yesterday: 90 °F (at 3:30 PM)
Minimum temperature yesterday: 70 °F (at 11:30 PM)
Average temperature yesterday: 80 °F

High & Low Weather Summary for the Past Weeks

 TemperatureHumidityPressure
High95 °F (Jun 17, 3:30 PM)100% (Jun 13, 3:00 AM)30.18 "Hg (Jun 13, 3:00 AM)
Low55 °F (Jun 15, 5:00 AM)32% (Jun 17, 2:00 PM)29.53 "Hg (Jun 13, 5:00 PM)
Average76 °F68%29.93 "Hg
* Reported Jun 12 3:00 AM — Jun 27 3:00 AM, Niš, Weather by CustomWeather, © 2016

Note: Actual official high and low records may vary slightly from our data, if they occured in-between our weather recording intervals... More about our weather records

Advertising

Niš Weather History for the Previous 24 Hours

Scroll right to see more
 ConditionsComfort  
Time TempWeatherWind HumidityBarometerVisibility
3:00 AM
Mon, Jun 27
64 °FClear.No wind94%29.95 "Hg10 mi
2:30 AM66 °FClear.1 mph88%29.95 "Hg10 mi
2:00 AM68 °FClear.1 mph83%29.95 "Hg10 mi
1:30 AM66 °FClear.2 mph88%29.92 "Hg10 mi
1:00 AM68 °FClear.1 mph83%29.92 "Hg10 mi
12:30 AM68 °FClear.1 mph83%29.92 "Hg10 mi
12:00 AM70 °FClear.1 mph73%29.92 "Hg10 mi
11:30 PM
Sun, Jun 26
70 °FClear.3 mph73%29.92 "Hg10 mi
11:00 PM75 °FClear.2 mph65%29.92 "Hg10 mi
10:30 PM75 °FClear.3 mph61%29.92 "Hg10 mi
10:00 PM73 °FPassing clouds.3 mph65%29.92 "HgN/A
9:30 PM75 °FClear.2 mph61%29.92 "Hg10 mi
9:00 PM75 °FSunny.1 mph61%29.92 "Hg10 mi
8:30 PM81 °FPassing clouds.3 mph51%29.89 "HgN/A
8:00 PM82 °FPassing clouds.3 mph48%29.89 "HgN/A
7:30 PM84 °FPassing clouds.3 mph43%29.89 "HgN/A
7:00 PM86 °FPassing clouds.6 mph40%29.89 "HgN/A
6:30 PM88 °FPassing clouds.8 mph38%29.89 "HgN/A
6:00 PM88 °FPassing clouds.8 mph35%29.89 "HgN/A
5:30 PM88 °FPassing clouds.9 mph38%29.89 "HgN/A
5:00 PM88 °FPassing clouds.8 mph38%29.89 "HgN/A
4:30 PM88 °FPassing clouds.9 mph38%29.89 "HgN/A
4:00 PM88 °FPassing clouds.6 mph35%29.89 "HgN/A
3:30 PM90 °FPassing clouds.2 mph36%29.89 "HgN/A
3:00 PM88 °FPassing clouds.7 mph38%29.89 "HgN/A
2:30 PM88 °FPassing clouds.7 mph38%29.89 "HgN/A
2:00 PM88 °FPassing clouds.9 mph38%29.92 "HgN/A
1:30 PM88 °FScattered clouds.5 mph38%29.92 "HgN/A
1:00 PM86 °FPassing clouds.6 mph40%29.92 "HgN/A
12:30 PM86 °FPassing clouds.3 mph40%29.92 "HgN/A
12:00 PM84 °FPassing clouds.7 mph43%29.95 "HgN/A
11:30 AM84 °FPassing clouds.9 mph43%29.95 "HgN/A
11:00 AM84 °FPassing clouds.5 mph45%29.95 "HgN/A
10:30 AM82 °FPassing clouds.8 mph48%29.95 "HgN/A
10:00 AM82 °FPassing clouds.9 mph48%29.95 "HgN/A
9:30 AM82 °FPassing clouds.8 mph48%29.95 "HgN/A
9:00 AM82 °FPassing clouds.8 mph48%29.95 "HgN/A
8:30 AM81 °FSunny.2 mph51%29.95 "Hg10 mi
8:00 AM77 °FPassing clouds.5 mph57%29.95 "HgN/A
7:30 AM75 °FPassing clouds.6 mph57%29.95 "HgN/A
7:00 AM77 °FPassing clouds.5 mph54%29.95 "HgN/A
6:30 AM73 °FPassing clouds.5 mph61%29.95 "HgN/A
6:00 AM73 °FSunny.2 mph61%29.92 "Hg10 mi
5:30 AM72 °FPassing clouds.3 mph61%29.95 "HgN/A
5:00 AM73 °FClear.8 mph57%29.92 "Hg10 mi
4:30 AM73 °FClear.10 mph57%29.92 "Hg10 mi
4:00 AM75 °FClear.10 mph54%29.92 "Hg10 mi
Weather by CustomWeather, © 2016

See weather overviewHow to use our weather pages